Weather History for HELX - April, 2014

Change the Weather History Date:

Monday, April 14, 2014

  Actual Average Record
Temperature  
Mean Temperature 79 °F -  
Max Temperature 94 °F 95 °F 109 °F (1998)
Min Temperature 64 °F 66 °F 52 °F (2015)
Cooling Degree Days 14    
Growing Degree Days 29 (Base 50)    
Moisture  
Dew Point 42 °F    
Average Humidity 24    
Maximum Humidity 38    
Minimum Humidity 11    
Precipitation  
Precipitation 0.00 in 0.00 in - ()
Sea Level Pressure  
Sea Level Pressure 29.88 in    
Wind  
Wind Speed 2 mph ()    
Max Wind Speed 6 mph    
Max Gust Speed -    
Visibility 5.9 miles    
Events      
Averages and records for this station are not official NWS values.
T = Trace of Precipitation, MM = Missing Value Source: Averaged Metar Reports

Daily Weather History Graph

Daily Weather History Graph

Search for Another Location

Airport or City:

Trip Planner

Search our weather history database for the weather conditions in past years. The results will help you decide how hot, cold, wet, or windy it might be!

Date:

Astronomy

Apr. 14, 2014 Rise Set
Actual Time 5:27 AM EET 6:11 PM EET
Civil Twilight 5:04 AM EET 6:35 PM EET
Nautical Twilight 4:36 AM EET 7:02 PM EET
Astronomical Twilight 4:08 AM EET 7:30 PM EET
Moon 5:32 PM EET (4/14) 4:42 AM EET (4/14)
Length of Visible Light 13h 31m
Length of Day
12h 44m
Waxing Gibbous, 99% of the Moon is Illuminated
Apr 14
Waxing Gibbous
Apr 15
Full
Apr 22
Last Quarter
Apr 29
New
May 7
First Quarter

Hourly Weather History & Observations

Time (EET) Temp. Dew Point Humidity Pressure Visibility Wind Dir Wind Speed Gust Speed Precip Events Conditions
12:00 AM 71.6 °F 37.4 °F 29% 29.92 in - Calm Calm - N/A   Clear
1:00 AM 73.4 °F 46.4 °F 38% 29.89 in - East 4.6 mph - N/A   Clear
2:00 AM 71 °F 36 °F 17% 29.89 in 6 mi SE 2.3 mph - -  
2:00 AM 73.4 °F 46.4 °F 38% 29.89 in - East 4.6 mph - N/A   Clear
3:00 AM 66.2 °F 35.6 °F 32% 29.89 in - Calm Calm - N/A   Clear
4:00 AM 66.2 °F 35.6 °F 32% 29.89 in - NNE 2.3 mph - N/A   Clear
5:00 AM 67 °F 34 °F 18% 29.91 in 6 mi Calm Calm - -  
5:00 AM 66.2 °F 33.8 °F 30% 29.92 in - Calm Calm - N/A   Clear
6:00 AM 64.4 °F 35.6 °F 34% 29.92 in - SE 3.5 mph - N/A   Clear
7:00 AM 68.0 °F 33.8 °F 28% 29.92 in - ESE 5.8 mph - N/A   Clear
8:00 AM 73 °F 39 °F 18% 29.95 in 6 mi East 2.3 mph - -   Clear
8:00 AM 73.4 °F 39.2 °F 29% 29.95 in - East 2.3 mph - N/A   Clear
9:00 AM 78.8 °F 44.6 °F 30% 29.95 in - NNE 2.3 mph - N/A   Clear
10:00 AM 84.2 °F 44.6 °F 25% 29.95 in - Calm Calm - N/A   Clear
11:00 AM 87 °F 46 °F 15% 29.95 in 6 mi WNW 2.3 mph - -  
11:00 AM 87.8 °F 46.4 °F 24% 29.95 in - WNW 2.3 mph - N/A   Clear
12:00 PM 91.4 °F 42.8 °F 18% 29.92 in - Calm Calm - N/A   Clear
1:00 PM 93.2 °F 42.8 °F 17% 29.89 in - Calm Calm - N/A   Clear
2:00 PM 93 °F 44 °F 11% 29.85 in 6 mi WNW 2.3 mph - -  
2:00 PM 93.2 °F 44.6 °F 19% 29.86 in - WNW 2.3 mph - N/A   Clear
3:00 PM 93.2 °F 42.8 °F 17% 29.83 in - WSW 3.5 mph - N/A   Clear
4:00 PM 93.2 °F 46.4 °F 20% 29.83 in - West 5.8 mph - N/A   Clear
5:00 PM 93 °F 46 °F 12% 29.80 in 6 mi WSW 2.3 mph - -  
5:00 PM 93.2 °F 46.4 °F 20% 29.80 in - WSW 2.3 mph - N/A   Clear
6:00 PM 89.6 °F 44.6 °F 21% 29.80 in - Calm Calm - N/A   Clear
7:00 PM 87.8 °F 46.4 °F 24% 29.83 in - ESE 2.3 mph - N/A   Clear
8:00 PM 83 °F 46 °F 18% 29.83 in 6 mi NNE 2.3 mph - -  
8:00 PM 84.2 °F 46.4 °F 27% 29.83 in - NNE 2.3 mph - N/A   Clear
9:00 PM 80.6 °F 48.2 °F 32% 29.83 in 5.0 mi North 2.3 mph - N/A   Unknown
10:00 PM 78.8 °F 46.4 °F 32% 29.86 in - Calm Calm - N/A   Clear
11:00 PM 76 °F 39 °F 16% 29.84 in 6 mi Calm Calm - -  
11:00 PM 77.0 °F 39.2 °F 26% 29.83 in - Calm Calm - N/A   Clear